When you browse on this site, cookies collect data to enhance your experience and personalize the content and advertising you see.
Visit our Privacy Policy to learn more. By continuing to use the site, you agree to this use of cookies and data.
  • în România
  • Lista ţărilor
  • Pe 7 zile
  • Temperatura apei
  • Meteo pe hartă
  • Widget-uri
  • user-avatar
    Intrare

    Meteo pe oră la Roma

    Astăzi, 21 Noiembrie, Joi

    Timp Temperatura Precipitaţii Vânt Presiune Umiditate
    00:00 +13°C° 0 mm 2 m/s 758 mmHg 75%
    01:00 +13°C° 0 mm 2 m/s 758 mmHg 75%
    02:00 +11°C° 0.2 mm 3 m/s 757 mmHg 77%
    03:00 +11°C° 0.2 mm 3 m/s 757 mmHg 79%
    04:00 +11°C° 0.2 mm 4 m/s 757 mmHg 80%
    05:00 +11°C° 0.5 mm 3 m/s 757 mmHg 82%
    06:00 +11°C° 0.5 mm 3 m/s 757 mmHg 83%
    07:00 +11°C° 0.5 mm 3 m/s 757 mmHg 85%
    08:00 +12°C° 0.4 mm 3 m/s 757 mmHg 83%
    09:00 +12°C° 0.4 mm 3 m/s 757 mmHg 80%
    10:00 +13°C° 0.4 mm 3 m/s 757 mmHg 77%
    11:00 +13°C° 0.4 mm 3 m/s 757 mmHg 76%
    12:00 +14°C° 0.4 mm 3 m/s 756 mmHg 74%
    13:00 +14°C° 0.4 mm 4 m/s 756 mmHg 72%
    14:00 +14°C° 0.3 mm 4 m/s 756 mmHg 75%
    15:00 +13°C° 0.3 mm 4 m/s 756 mmHg 77%
    16:00 +13°C° 0.3 mm 4 m/s 756 mmHg 80%
    17:00 +12°C° 0.1 mm 3 m/s 756 mmHg 80%
    18:00 +12°C° 0.1 mm 3 m/s 756 mmHg 81%
    19:00 +12°C° 0.1 mm 3 m/s 756 mmHg 82%
    20:00 +12°C° 0 mm 3 m/s 756 mmHg 81%
    21:00 +12°C° 0 mm 3 m/s 756 mmHg 80%
    22:00 +12°C° 0 mm 3 m/s 757 mmHg 80%
    23:00 +11°C° 0 mm 3 m/s 757 mmHg 79%

    Mâine, 22 Noiembrie, Vineri

    Timp Temperatura Precipitaţii Vânt Presiune Umiditate
    00:00 +11°C° 0 mm 3 m/s 757 mmHg 79%
    01:00 +11°C° 0 mm 3 m/s 757 mmHg 78%
    02:00 +11°C° 0.1 mm 3 m/s 756 mmHg 78%
    03:00 +11°C° 0.1 mm 3 m/s 756 mmHg 78%
    04:00 +11°C° 0.1 mm 3 m/s 756 mmHg 78%
    05:00 +11°C° 0.2 mm 3 m/s 756 mmHg 78%
    06:00 +11°C° 0.2 mm 3 m/s 756 mmHg 78%
    07:00 +11°C° 0.2 mm 3 m/s 756 mmHg 78%
    08:00 +13°C° 0.1 mm 3 m/s 756 mmHg 76%
    09:00 +14°C° 0.1 mm 4 m/s 757 mmHg 73%
    10:00 +15°C° 0.1 mm 4 m/s 757 mmHg 71%
    11:00 +15°C° 0.2 mm 4 m/s 757 mmHg 70%
    12:00 +17°C° 0.2 mm 4 m/s 756 mmHg 68%
    13:00 +16°C° 0.2 mm 5 m/s 756 mmHg 67%
    14:00 +17°C° 0.3 mm 4 m/s 756 mmHg 70%
    15:00 +15°C° 0.3 mm 4 m/s 756 mmHg 72%
    16:00 +15°C° 0.3 mm 4 m/s 755 mmHg 74%
    17:00 +16°C° 0.2 mm 3 m/s 756 mmHg 76%
    18:00 +14°C° 0.2 mm 3 m/s 756 mmHg 77%
    19:00 +13°C° 0.2 mm 3 m/s 756 mmHg 78%
    20:00 +13°C° 0.1 mm 3 m/s 756 mmHg 78%
    21:00 +13°C° 0.1 mm 3 m/s 756 mmHg 78%
    22:00 +13°C° 0.1 mm 3 m/s 756 mmHg 78%
    23:00 +13°C° 0.1 mm 4 m/s 756 mmHg 78%

    Poimâine, 23 Noiembrie, Sâmbătă

    Timp Temperatura Precipitaţii Vânt Presiune Umiditate
    00:00 +13°C° 0.1 mm 4 m/s 756 mmHg 78%
    01:00 +13°C° 0.1 mm 4 m/s 756 mmHg 78%
    02:00 +13°C° 0.1 mm 4 m/s 755 mmHg 79%
    03:00 +13°C° 0.1 mm 4 m/s 755 mmHg 80%
    04:00 +13°C° 0.1 mm 5 m/s 754 mmHg 81%
    05:00 +13°C° 0 mm 5 m/s 754 mmHg 81%
    06:00 +12°C° 0 mm 5 m/s 754 mmHg 82%
    07:00 +12°C° 0 mm 5 m/s 754 mmHg 82%
    08:00 +13°C° 0 mm 6 m/s 754 mmHg 79%
    09:00 +14°C° 0 mm 6 m/s 753 mmHg 76%
    10:00 +15°C° 0 mm 7 m/s 753 mmHg 72%
    11:00 +16°C° 0 mm 7 m/s 753 mmHg 70%
    12:00 +17°C° 0 mm 8 m/s 752 mmHg 68%
    13:00 +17°C° 0 mm 8 m/s 752 mmHg 66%
    14:00 +17°C° 0.1 mm 7 m/s 752 mmHg 68%
    15:00 +16°C° 0.1 mm 7 m/s 752 mmHg 69%
    16:00 +16°C° 0.1 mm 7 m/s 751 mmHg 71%
    17:00 +16°C° 0.2 mm 6 m/s 752 mmHg 71%
    18:00 +15°C° 0.2 mm 6 m/s 752 mmHg 71%
    19:00 +15°C° 0.2 mm 6 m/s 752 mmHg 71%
    20:00 +15°C° 0.2 mm 5 m/s 752 mmHg 70%
    21:00 +15°C° 0.2 mm 5 m/s 752 mmHg 69%
    22:00 +14°C° 0.2 mm 4 m/s 752 mmHg 69%
    23:00 +14°C° 0.3 mm 4 m/s 752 mmHg 68%

    24 Noiembrie, Duminică

    Timp Temperatura Precipitaţii Vânt Presiune Umiditate
    00:00 +14°C° 0.3 mm 4 m/s 752 mmHg 67%
    01:00 +14°C° 0.3 mm 4 m/s 752 mmHg 66%
    02:00 +14°C° 0.2 mm 4 m/s 752 mmHg 67%
    03:00 +14°C° 0.2 mm 4 m/s 751 mmHg 68%
    04:00 +14°C° 0.2 mm 4 m/s 751 mmHg 68%
    05:00 +14°C° 1.2 mm 3 m/s 751 mmHg 72%
    06:00 +15°C° 1.2 mm 2 m/s 751 mmHg 75%
    07:00 +15°C° 1.2 mm 2 m/s 751 mmHg 79%
    08:00 +15°C° 0.7 mm 2 m/s 751 mmHg 77%
    09:00 +16°C° 0.7 mm 2 m/s 751 mmHg 75%
    10:00 +16°C° 0.7 mm 2 m/s 751 mmHg 74%
    11:00 +17°C° 0.2 mm 2 m/s 751 mmHg 70%
    12:00 +17°C° 0.2 mm 2 m/s 751 mmHg 67%
    13:00 +18°C° 0.2 mm 2 m/s 751 mmHg 63%
    14:00 +18°C° 0 mm 2 m/s 750 mmHg 67%
    15:00 +18°C° 0 mm 1 m/s 750 mmHg 70%
    16:00 +16°C° 0 mm 1 m/s 750 mmHg 74%
    17:00 +16°C° 0 mm 1 m/s 750 mmHg 75%
    18:00 +15°C° 0 mm 2 m/s 750 mmHg 76%
    19:00 +15°C° 0 mm 2 m/s 750 mmHg 78%
    20:00 +14°C° 0 mm 3 m/s 751 mmHg 76%
    21:00 +14°C° 0 mm 3 m/s 751 mmHg 74%
    22:00 +14°C° 0 mm 4 m/s 751 mmHg 72%
    23:00 +14°C° 0 mm 4 m/s 751 mmHg 73%

    25 Noiembrie, Luni

    Timp Temperatura Precipitaţii Vânt Presiune Umiditate
    00:00 +15°C° 0 mm 5 m/s 751 mmHg 73%
    01:00 +15°C° 0 mm 6 m/s 751 mmHg 73%
    02:00 +14°C° 0 mm 5 m/s 751 mmHg 72%
    03:00 +14°C° 0 mm 5 m/s 751 mmHg 72%
    04:00 +14°C° 0 mm 5 m/s 752 mmHg 71%
    05:00 +14°C° 0 mm 4 m/s 752 mmHg 72%
    06:00 +14°C° 0 mm 4 m/s 753 mmHg 73%
    07:00 +13°C° 0 mm 4 m/s 753 mmHg 74%
    08:00 +14°C° 0 mm 4 m/s 753 mmHg 72%
    09:00 +15°C° 0 mm 4 m/s 754 mmHg 69%
    10:00 +17°C° 0 mm 4 m/s 754 mmHg 67%
    11:00 +18°C° 0 mm 4 m/s 754 mmHg 64%
    12:00 +19°C° 0 mm 3 m/s 754 mmHg 61%
    13:00 +20°C° 0 mm 3 m/s 754 mmHg 58%
    14:00 +19°C° 0 mm 2 m/s 755 mmHg 61%
    15:00 +19°C° 0 mm 2 m/s 755 mmHg 64%
    16:00 +18°C° 0 mm 2 m/s 755 mmHg 67%
    17:00 +17°C° 0 mm 2 m/s 755 mmHg 69%
    18:00 +16°C° 0 mm 2 m/s 755 mmHg 71%
    19:00 +15°C° 0 mm 2 m/s 756 mmHg 73%
    20:00 +15°C° 0 mm 2 m/s 756 mmHg 74%
    21:00 +14°C° 0 mm 2 m/s 756 mmHg 74%
    22:00 +14°C° 0 mm 2 m/s 756 mmHg 74%
    23:00 +14°C° 0 mm 2 m/s 756 mmHg 74%

    26 Noiembrie, Marţi

    Timp Temperatura Precipitaţii Vânt Presiune Umiditate
    00:00 +13°C° 0 mm 2 m/s 757 mmHg 74%
    01:00 +13°C° 0 mm 2 m/s 757 mmHg 74%
    02:00 +13°C° 0 mm 2 m/s 757 mmHg 74%
    03:00 +12°C° 0 mm 2 m/s 756 mmHg 74%
    04:00 +12°C° 0 mm 2 m/s 756 mmHg 73%
    05:00 +12°C° 0 mm 2 m/s 757 mmHg 73%
    06:00 +12°C° 0 mm 2 m/s 757 mmHg 73%
    07:00 +10°C° 0 mm 2 m/s 757 mmHg 72%
    08:00 +13°C° 0 mm 1 m/s 757 mmHg 68%
    09:00 +14°C° 0 mm 1 m/s 757 mmHg 63%
    10:00 +16°C° 0 mm 1 m/s 757 mmHg 59%
    11:00 +16°C° 0 mm 1 m/s 757 mmHg 56%
    12:00 +18°C° 0 mm 1 m/s 757 mmHg 54%
    13:00 +19°C° 0 mm 1 m/s 757 mmHg 52%
    14:00 +19°C° 0 mm 1 m/s 757 mmHg 56%
    15:00 +18°C° 0 mm 1 m/s 757 mmHg 60%
    16:00 +16°C° 0 mm 1 m/s 757 mmHg 64%
    17:00 +15°C° 0 mm 1 m/s 757 mmHg 66%
    18:00 +15°C° 0 mm 1 m/s 757 mmHg 69%
    19:00 +13°C° 0 mm 0 m/s 758 mmHg 72%
    20:00 +13°C° 0 mm 1 m/s 758 mmHg 73%
    21:00 +13°C° 0 mm 1 m/s 758 mmHg 74%
    22:00 +13°C° 0 mm 1 m/s 759 mmHg 74%
    23:00 +13°C° 0 mm 1 m/s 759 mmHg 75%
    Arată mai mult